STARLINK-35682, 66467

Orbit data source: Space-Track

STARLINK-35682, 66467 is a payload satellite owned by SpaceX/Seattle (US) in LEO that was launched on Sat, 15 Nov 2025 UTC via an FALCON 9 launch vehicle from the Air Force Eastern Test Range (AFETR). Payload-class satellites include a variety of spacecraft equipped with specific instruments for various scientific and technological missions. These include communications satellites like Starlink; space stations such as the ISS; scientific satellites like the Hubble; Earth observation satellites from companies like Planet Labs, Umbra, and HawkEye 360; GPS; miniature CubeSats for education and research; and military/defense satellites.

Loading next visibility...
Identifier
66467, 2025-262M
Orbit
LEO
Country
Flag of USUS
Related business
Manufacturer
SpaceX/Seattle
Mission
Operational Commercial Communications
Bus & Motor
STARLINK V2MO, Unknown motor
Mass
575 kg wet, ~530 kg dry
Launch date (UTC)
2025-11-15 (7 months ago)
Launch vehicle
FALCON 9
Launch site
Air Force Eastern Test Range (AFETR)
Object type
Payload
Rocket body
Debris
Shape & HBR
Box + 2 Pan, 17.7 m
Radar Cross Section
36.964 m², Large (>1 m²)

Expand to show TLE details & history
Last TLE update: 10 hours ago

TLE from 10 hours ago
0 STARLINK-35682
1 66467U 25262M   26171.42690075  .00023821  00000-0  87155-3 0  9991
2 66467  42.9998  76.4056 0000719 269.9265  90.1505 15.27610300 34615
Epoch: 2026-06-20T10:14Z
TLE epoch observation values (Epoch: 2026-06-20T10:14:44.224Z)
Latitude
0.00002°
Longitude
14.07967°
Altitude
482.735 km
Speed
7.626 km/s
True Right ascension
05h 05m 37s
True Declination
0° 00' 00"
Sunlit
Object was in daylight at epoch
Visualization orbit readout
Latitude
Unknown
Longitude
Unknown
Altitude
Unknown
Speed
Unknown
Apparent Right ascension
Unknown
Apparent Declination
Unknown
Sunlit
N/A
Visualization observer readout
Local Sidereal Time
07:17:37
Azimuth
Unknown
Elevation
Unknown
Doppler factor
Unknown
Orbital elements
Apogee altitude
485.397 km
Perigee altitude
484.41 km
Semi-major axis
6,863.041 km
Eccentricity
0.00007
Inclination
42.9998°
RAAN
76.4056°
Arg. of periapsis
269.9265°
True anomaly
90.15874°
Mean anomaly
90.1505°
Eccentric anomaly
90.15462°
Mean motion
3.81741 °/min
Orbital period
94.3 mins
BSTAR
0.00087155
Loading maneuver chart data...
Computing Atmospheric mass density...
Loading historical data...
Loading historical data...
Loading historical data...
Loading historical data...
Loading historical data...
Loading historical data...
Loading historical data...

Documentation

Showing up to 5 results
|